Moses Lake, WA
on Sunday, December 9, 2012

Sunday
Previous Day Next Day
Daily Summary
 ActualAverageRecord
Temperature
Mean Temperature °F 29°F  
Max Temperature 34°F 35°F 44°F (1981)
Min Temperature 29°F 23°F 3°F (2013)
Degree Days
Heating Degree Days 33 36  
Month to date heating degree days 211 311  
Since 1 July heating degree days 1479 1772  
Cooling Degree Days 0 0  
Month to date cooling degree days 0 0  
Year to date cooling degree days 719 615  
Moisture
Dew Point 28°F   
Average Humidity 85    
Maximum Humidity 92    
Minimum Humidity 78    
Precipitation
Precipitation T in 0.04 in 0.15 in (2014)
Month to date precipitation 0.62 0.33  
Year to date precipitation 8.36 8.00  
Wind
Wind Speed 5 mph   
Max Wind Speed 10 mph   
Max Gust Speed 13 mph   
Visibility 9 miles   
Events Snow   

Key: T is trace of precipitation, MM is missing value
Source: NWS Daily Summary
Time(PST)TemperatureDew PointHumidity Pressure Visibility Wind DirectionWind SpeedGust SpeedPrecipitationEvents Conditions
12:52 AM 30.0°F 25.0°F 82% 30.37 in 10.0 miles North 4.6 mph - N/A   Clear
1:52 AM 30.0°F 24.1°F 79% 30.39 in 10.0 miles Calm Calm - N/A   Clear
2:52 AM 30.0°F 24.1°F 79% 30.40 in 10.0 miles North 4.6 mph - N/A   Clear
3:52 AM 30.0°F 25.0°F 82% 30.40 in 10.0 miles North 4.6 mph - N/A   Clear
4:52 AM 28.9°F 25.0°F 85% 30.41 in 10.0 miles North 3.5 mph - N/A   Clear
5:52 AM 30.0°F 25.0°F 82% 30.43 in 10.0 miles NNE 4.6 mph - N/A   Clear
6:52 AM 28.9°F 25.0°F 85% 30.43 in 10.0 miles Calm Calm - N/A   Mostly Cloudy
7:52 AM 30.0°F 25.0°F 82% 30.44 in 10.0 miles Calm Calm - N/A   Overcast
8:52 AM 30.0°F 26.1°F 85% 30.43 in 10.0 miles SSE 3.5 mph - N/A   Overcast
9:52 AM 32.0°F 27.0°F 82% 30.43 in 10.0 miles South 3.5 mph - N/A   Overcast
10:42 AM 32.0°F 26.6°F 80% 30.39 in 2.5 miles Calm Calm - 0.00 in Snow Light Snow
10:52 AM 32.0°F 27.0°F 82% 30.43 in 1.2 miles South 3.5 mph - 0.00 in Snow Light Snow
11:02 AM 32.0°F 28.4°F 87% 30.39 in 4.0 miles Calm Calm - 0.00 in Snow Light Snow
11:13 AM 32.0°F 28.4°F 87% 30.37 in 4.0 miles SSE 4.6 mph - 0.00 in Snow Light Snow
11:39 AM 32.0°F 28.4°F 87% 30.37 in 4.0 miles SE 3.5 mph - 0.00 in   Overcast
11:52 AM 32.0°F 28.9°F 88% 30.39 in 4.0 miles SSE 6.9 mph - 0.00 in Snow Light Snow
12:00 PM 32.0°F 28.4°F 87% 30.34 in 6.0 miles SE 6.9 mph - 0.00 in Snow Light Snow
12:07 PM 33.8°F 28.4°F 81% 30.34 in 6.0 miles SSE 5.8 mph - 0.00 in Snow Light Snow
12:52 PM 33.1°F 28.0°F 82% 30.38 in 10.0 miles SE 6.9 mph - 0.00 in   Overcast
1:14 PM 33.8°F 28.4°F 81% 30.33 in 10.0 miles SE 5.8 mph - N/A   Overcast
1:34 PM 33.8°F 28.4°F 81% 30.31 in 10.0 miles SSE 6.9 mph - N/A   Overcast
1:41 PM 33.8°F 28.4°F 81% 30.31 in 6.0 miles SE 6.9 mph - 0.00 in Snow Light Snow
1:52 PM 33.1°F 28.9°F 85% 30.34 in 9.0 miles SE 8.1 mph - 0.00 in   Overcast
2:01 PM 33.8°F 28.4°F 81% 30.28 in 10.0 miles SSE 9.2 mph - N/A   Overcast
2:33 PM 33.8°F 30.2°F 87% 30.30 in 10.0 miles South 4.6 mph - N/A   Overcast
2:40 PM 33.8°F 30.2°F 87% 30.30 in 10.0 miles SSE 3.5 mph - N/A   Overcast
2:52 PM 34.0°F 30.0°F 85% 30.34 in 10.0 miles SSE 4.6 mph - N/A   Overcast
3:05 PM 33.8°F 30.2°F 87% 30.29 in 10.0 miles SSE 4.6 mph - N/A   Overcast
3:52 PM 34.0°F 30.9°F 89% 30.30 in 10.0 miles South 6.9 mph - N/A   Overcast
4:52 PM 34.0°F 30.9°F 89% 30.28 in 10.0 miles SSE 4.6 mph - N/A   Overcast
5:52 PM 34.0°F 30.9°F 89% 30.27 in 10.0 miles SSE 6.9 mph - N/A   Overcast
6:44 PM 33.8°F 30.2°F 87% 30.22 in 10.0 miles Calm Calm - N/A   Partly Cloudy
6:52 PM 33.1°F 30.0°F 89% 30.26 in 10.0 miles NW 4.6 mph - N/A   Scattered Clouds
6:59 PM 33.8°F 30.2°F 87% 30.22 in 10.0 miles NNW 5.8 mph - N/A   Mostly Cloudy
7:52 PM 33.1°F 30.0°F 89% 30.24 in 10.0 miles North 5.8 mph - N/A   Overcast
8:29 PM 32.0°F 30.2°F 93% 30.18 in 10.0 miles North 4.6 mph - N/A   Overcast
8:52 PM 32.0°F 30.0°F 92% 30.23 in 10.0 miles North 6.9 mph - N/A   Overcast
9:52 PM 32.0°F 28.9°F 88% 30.26 in 10.0 miles North 10.4 mph - N/A   Overcast
10:32 PM 30.2°F 26.6°F 86% 30.20 in 10.0 miles WNW 3.5 mph - N/A   Scattered Clouds
10:52 PM 30.9°F 28.0°F 89% 30.26 in 10.0 miles North 3.5 mph - N/A   Mostly Cloudy
11:52 PM 30.9°F 28.9°F 92% 30.27 in 10.0 miles North 5.8 mph - N/A   Overcast
Moon Phase
Dec. 09 Dec. 13 Dec. 20 Dec. 28 Jan. 04
Sunrise:07:32 AM (PST) Moon Rise:02:58 AM (PST)12/9
Sunset:04:07 PM (PST) Moon Set:01:27 PM (PST)12/9

Copyright © 2014 The Weather Underground, Inc.